Regional Weather Roundup
Issued by NWS

Home | Current Version | Previous Version | Graphics & Text | Print | Product List | Glossary On
Versions: 1 2 3 4 5 6 7 8 9 10 11 12 13 14 15 16 17 18 19 20 21 22 23 24 25 26 27 28 29 30 31 32 33 34 35 36 37 38 39 40 41 42 43 44 45 46 47 48 49 50
000
ASUS43 KIND 200309
RWRIN

WEATHER ROUNDUP FOR INDIANA
NATIONAL WEATHER SERVICE INDIANAPOLIS IN
1100 PM EDT FRI SEP 19 2014

NOTE: "FAIR" INDICATES FEW OR NO CLOUDS BELOW 12,000 FEET WITH NO
SIGNIFICANT WEATHER AND/OR OBSTRUCTIONS TO VISIBILITY.

* - STATION DOES NOT REPORT WEATHER SUCH AS PRECIPITATION OR FOG.

+ - STATION NOT QUALITY CONTROLLED BY THE NATIONAL WEATHER SERVICE.
    USE DATA WITH CAUTION...ESPECIALLY DEWPOINT AND RELATIVE
    HUMIDITY OBSERVATIONS.

INZ001>003-010>013-019-020-200400-
NORTHWEST INDIANA

CITY           SKY/WX    TMP DP  RH WIND       PRES   REMARKS
GARY /AIRPORT/ CLEAR     63  49  60 S8        30.01F
KNOX *+        PTCLDY    56  48  74 S5        30.03S
LA PORTE +     PTCLDY    57  47  69 S3        30.04S
MICHIGAN CITY+ PTCLDY    59  45  58 S6        30.03S
MONTICELLO +   CLEAR     56  50  81 CALM      30.05S
RENSSELAER +   CLEAR     54  52  94 S3        30.05R
VALPARAISO     PTCLDY    58  47  66 S5        30.04R

$$

LMZ046-743>745-200400-
SOUTHERN LAKE MICHIGAN

STATION/POSITION TIME  TEMP WIND        PRES
                       AIR  DIR/SP/G
                 (UTC) (F)  (DEG/KT/KT) (MB)
MICHIGAN CITY    0300   64  150/ 12/ 17   N/A

$$

INZ004-005-014>016-021>024-200400-
NORTH CENTRAL INDIANA

CITY           SKY/WX    TMP DP  RH WIND       PRES   REMARKS
GOSHEN         PTCLDY    59  49  69 S7        30.05S
LOGANSPORT +   CLEAR     52  45  76 S5        30.06F
PERU/GRISSOM   PTCLDY    56  51  83 S7        30.06S
ROCHESTER +    PTCLDY    61  50  67 S3        30.06S
SOUTH BEND     PTCLDY    60  48  64 S7        30.04R
WARSAW +       CLEAR     52  48  87 CALM      30.06S

$$

INZ006>009-017-018-025>027-200400-
NORTHEAST INDIANA

CITY           SKY/WX    TMP DP  RH WIND       PRES   REMARKS
ANGOLA *+      CLEAR     54  48  82 CALM      30.07S
AUBURN +       CLEAR     54  46  76 CALM      30.08S
FORT WAYNE     PTCLDY    53  48  83 S5        30.08S
HUNTINGTON +   CLEAR     53  50  90 CALM      30.07S

$$

INZ028-029-035-036-043>045-051>053-200400-
WEST CENTRAL INDIANA

CITY           SKY/WX    TMP DP  RH WIND       PRES   REMARKS
GREENCASTLE +  CLEAR     54  52  94 CALM      30.08S
LAFAYETTE      CLEAR     54  50  86 CALM      30.06R
TERRE HAUTE    CLEAR     56  51  84 SE3       30.05F

$$

INZ030>032-037>040-046>048-054>057-064-065-200400-
CENTRAL INDIANA

CITY           SKY/WX    TMP DP  RH WIND       PRES   REMARKS
CP ATTERBURY + CLEAR     54  52  94 CALM      30.08F FOG
FRANKFORT +    CLEAR    N/A N/A N/A CALM      30.08R
INDIANAPOLIS   PTCLDY    62  51  67 SE5       30.07S
-EAGLE CREEK   PTCLDY    59  50  72 CALM      30.07S
KOKOMO *+      PTCLDY    54  46  76 S5        30.07S
MARION +       PTCLDY    53  48  83 S3        30.08S
MT COMFORT *+  PTCLDY    57  48  72 CALM      30.08F
SHELBYVILLE    PTCLDY    57  51  80 SE3       30.07F
ZIONSVILLE +   PTCLDY    51  47  87 CALM      30.08S

$$

INZ033-034-041-042-049-050-058-059-200400-
EAST CENTRAL INDIANA

CITY           SKY/WX    TMP DP  RH WIND       PRES   REMARKS
MUNCIE         CLEAR     59  49  69 S5        30.08F

$$

INZ060-061-067>069-081>083-085>088-200400-
SOUTHWEST INDIANA

CITY           SKY/WX    TMP DP  RH WIND       PRES   REMARKS
EVANSVILLE     CLEAR     65  57  75 N3        30.05R
WASHINGTON +   PTCLDY    56  55  96 CALM      30.05S

$$

INZ062-063-066-070>080-084-089>092-200400-
SOUTH CENTRAL AND SOUTHEAST INDIANA

CITY           SKY/WX    TMP DP  RH WIND       PRES   REMARKS
BLOOMINGTON    PTCLDY    54  52  93 CALM      30.07S FOG

$$




USA.gov is the U.S. government's official web portal to all federal, state and local government web resources and services.